[[{"header":{"parameterUnit":"m.s-1","parameterCategory":1,"la1":30.2992,"la2":30.254,"lo1":-89.0895,"lo2":-89.0443,"dy":0.0025,"dx":0.0025,"nx":19,"ny":19,"refTime":"2026-05-22T09:00:00:Z","depth":0,"parameterNumber":2,"parameterNumberName":"U-component_of_WINDS"},"data":[0,0,0,-2.3011,-2.3017,-2.3323,-2.3324,-2.3675,-2.3678,0,0,0,0,0,0,0,0,0,0,0,-2.2894,-2.2896,-2.3011,-2.3018,-2.3323,-2.3324,-2.3674,-2.3678,0,0,0,0,0,0,0,0,0,0,0,-2.2894,-2.2895,-2.2897,-2.3019,-2.3322,-2.3324,-2.3674,-2.3458,0,0,0,0,0,0,0,0,0,0,-2.3168,-2.3034,-2.2895,-2.2897,-2.302,-2.3322,-2.3325,-2.3448,-2.3471,-2.3519,0,-2.3552,0,-2.362,-2.3698,-2.3699,0,0,0,-2.3038,-2.3014,-2.3121,-2.2897,-2.3023,-2.3321,-2.3191,-2.3462,-2.3488,-2.3549,-2.3557,-2.3571,-2.3626,-2.37,-2.3702,-2.3904,-2.3904,0,0,-2.3021,-2.2935,-2.3102,-2.3136,-2.3084,-2.3181,-2.32,-2.3478,-2.3482,-2.3559,-2.358,-2.3631,-2.3702,-2.3705,-2.3904,-2.3904,0,0,0,-2.2959,-2.2922,-2.3023,-2.3121,-2.3178,-2.3189,-2.3211,-2.347,-2.351,-2.3584,-2.3636,-2.3704,-2.3708,-2.3904,-2.3904,-2.382,0,0,0,-2.295,-2.2886,-2.3015,-2.2965,-2.3172,-2.3327,-2.3195,-2.349,-2.3524,-2.3634,-2.3704,-2.3711,-2.3904,-2.3904,-2.3822,-2.3794,0,0,0,-2.2883,-2.2879,-2.2914,-2.296,-2.3088,-2.3325,-2.3382,-2.35,-2.3555,-2.37,-2.3712,-2.3904,-2.3904,-2.3825,-2.3798,-2.3823,0,0,0,-2.2788,-2.2834,-2.2911,-2.2983,-2.3085,-2.327,-2.3381,-2.3523,-2.3638,-2.3706,-2.3904,-2.3904,-2.3825,-2.3801,-2.3825,-2.3828,-2.3821,0,0,-2.2798,-2.2832,-2.2882,-2.296,-2.3109,-2.323,-2.337,-2.3556,-2.3649,-2.3814,-2.3821,-2.3821,-2.3798,-2.3823,-2.3813,-2.3807,0,0,0,-2.2856,-2.289,-2.2949,-2.3053,-2.3197,-2.3319,-2.3493,-2.3563,-2.3708,-2.3715,-2.384,-2.3829,-2.3847,-2.3853,-2.3848,-2.387,-2.3903,-2.3903,-2.3903,-2.2746,-2.2863,-2.2954,-2.3108,-2.3208,-2.3389,-2.3483,-2.3608,-2.3696,-2.3724,-2.3773,-2.3753,-2.3756,-2.3753,-2.3774,-2.3785,-2.3785,-2.3785,-2.3784,-2.2772,-2.284,-2.2958,-2.3088,-2.3212,-2.3324,-2.3502,-2.3561,-2.3685,-2.3725,-2.3747,-2.3779,-2.3742,-2.3767,-2.3779,-2.378,-2.3781,-2.3781,-2.3782,-2.2713,-2.2766,-2.285,-2.3016,-2.3131,-2.3287,-2.34,-2.3511,-2.3615,-2.3637,-2.3702,-2.3704,-2.372,-2.366,-2.366,-2.366,-2.366,-2.366,-2.366,-2.2617,-2.2716,-2.2797,-2.2955,-2.3038,-2.3162,-2.3347,-2.3433,-2.3557,-2.3628,-2.3629,-2.3715,-2.3717,-2.3714,-2.3659,-2.366,-2.366,-2.366,-2.366,-2.2599,-2.2622,-2.2746,-2.2829,-2.3027,-2.3135,-2.3275,-2.3441,-2.3529,-2.3582,-2.3666,-2.3648,-2.3691,-2.3696,-2.3695,-2.3639,-2.3639,-2.3639,-2.3639,-2.2549,-2.2582,-2.2736,-2.2862,-2.2999,-2.3139,-2.328,-2.3426,-2.358,-2.3643,-2.3668,-2.3676,-2.3676,-2.3719,-2.3724,-2.3725,-2.3677,-2.3677,-2.3677,-2.2545,-2.2597,-2.2693,-2.2843,-2.3007,-2.3145,-2.3282,-2.3425,-2.3606,-2.3681,-2.3694,-2.3693,-2.3708,-2.3706,-2.3779,-2.3784,-2.3788,0,0]},{"header":{"parameterUnit":"m.s-1","parameterCategory":1,"la1":30.2992,"la2":30.254,"lo1":-89.0895,"lo2":-89.0443,"dy":0.0025,"dx":0.0025,"nx":19,"ny":19,"refTime":"2026-05-22T09:00:00:Z","depth":0,"parameterNumber":3,"parameterNumberName":"V-component_of_WINDS"},"data":[0,0,0,8.5892,8.5897,8.6126,8.6127,8.6417,8.6419,0,0,0,0,0,0,0,0,0,0,0,8.583,8.5832,8.5892,8.5898,8.6126,8.6127,8.6416,8.6419,0,0,0,0,0,0,0,0,0,0,0,8.5829,8.5832,8.5835,8.5899,8.6125,8.6127,8.6415,8.6242,0,0,0,0,0,0,0,0,0,0,8.602,8.597,8.5831,8.5835,8.59,8.6125,8.6127,8.6234,8.6253,8.6314,0,8.6377,0,8.6403,8.6439,8.644,0,0,0,8.5892,8.5954,8.6012,8.5835,8.5902,8.6125,8.6021,8.6245,8.6266,8.634,8.6381,8.6391,8.6408,8.6441,8.6442,8.683,8.6832,0,0,8.5879,8.5873,8.5997,8.6026,8.5998,8.6014,8.6028,8.6258,8.6299,8.6382,8.6398,8.6413,8.6443,8.6445,8.6829,8.6831,0,0,0,8.5847,8.5864,8.5916,8.6014,8.6056,8.6021,8.6037,8.6289,8.6306,8.6401,8.6416,8.6445,8.6448,8.6826,8.6829,8.6927,0,0,0,8.5839,8.5845,8.591,8.5908,8.6052,8.6177,8.6063,8.629,8.6317,8.6415,8.6445,8.6451,8.6824,8.6828,8.692,8.6973,0,0,0,8.5813,8.5842,8.5878,8.5908,8.6007,8.6173,8.6204,8.6296,8.6326,8.644,8.6452,8.6823,8.6827,8.6913,8.6962,8.7073,0,0,0,8.5782,8.596,8.5879,8.6083,8.6005,8.6235,8.6202,8.6373,8.6483,8.6446,8.6824,8.6829,8.6911,8.6956,8.7065,8.7163,8.7205,0,0,8.6002,8.5986,8.6107,8.6041,8.6285,8.62,8.6456,8.6559,8.6573,8.6742,8.6752,8.6922,8.6962,8.7071,8.744,8.7473,0,0,0,8.6174,8.626,8.6326,8.6433,8.6521,8.6598,8.6665,8.6702,8.6847,8.6661,8.6993,8.7017,8.7081,8.7128,8.7156,8.7209,8.6851,8.6851,8.685,8.6474,8.6487,8.6685,8.6725,8.6829,8.6897,8.698,8.7041,8.7021,8.7099,8.7148,8.7372,8.7426,8.7447,8.7504,8.7203,8.7203,8.7203,8.7204,8.6795,8.6918,8.689,8.7073,8.7083,8.7234,8.7304,8.7284,8.7422,8.7335,8.7392,8.7294,8.7483,8.7532,8.7211,8.721,8.7209,8.7208,8.7208,8.6991,8.7052,8.71,8.7255,8.7373,8.7404,8.754,8.7543,8.7546,8.7603,8.7654,8.7652,8.7648,8.7628,8.7629,8.763,8.763,8.7631,8.7631,8.7175,8.7225,8.7342,8.7451,8.7519,8.7609,8.7678,8.7744,8.7816,8.7807,8.7807,8.7776,8.7501,8.743,8.7643,8.7641,8.764,8.7638,8.7638,8.7492,8.7421,8.7602,8.7671,8.7797,8.7911,8.7916,8.8048,8.8102,8.8168,8.8126,8.7923,8.7904,8.7882,8.7823,8.8125,8.8125,8.8125,8.8125,8.7655,8.7648,8.7833,8.7943,8.8051,8.8073,8.827,8.8324,8.8368,8.8401,8.8358,8.8281,8.8258,8.8253,8.8223,8.8168,8.855,8.8551,8.8551,8.7849,8.7853,8.8023,8.8071,8.817,8.8252,8.8437,8.8558,8.8593,8.8568,8.8426,8.8408,8.8284,8.8243,8.8213,8.8166,8.8065,0,0]}]]